Overview Statistics Trail Chart Weather Telemetry Raw packets
 

This is the latest recevied weather packets stored in our database for station/object DL3NDS-WX. If no packets are shown the sender has not sent any weather packets the latest 10 day(s).

<< 513 514 515 516 517 518 519 >>
Time Temp. Humidity Pressure Rain* Wind** Luminosity Snow
1787929895 20° C 83% 1015 hPa 0.25 mm - 83 W/m² -
1787929839 20° C 83% 1014.9 hPa 0.25 mm - 69 W/m² -
1787929772 20° C 83% 1015.2 hPa 0.25 mm - 58 W/m² -
1787929712 20° C 83% 1015.2 hPa 0.25 mm - 54 W/m² -
1787929653 20° C 83% 1015.3 hPa 0.25 mm - 53 W/m² -
1787929591 20° C 83% 1015.3 hPa 0.25 mm - 54 W/m² -
1787929530 20° C 83% 1015.2 hPa 0.25 mm - 60 W/m² -
1787929468 20° C 82% 1015.1 hPa 0.25 mm - 67 W/m² -
1787929408 20° C 82% 1015.1 hPa 0.25 mm - 72 W/m² -
1787929346 20° C 82% 1014.9 hPa 0.25 mm - 83 W/m² -
1787929286 20° C 82% 1015 hPa 0.25 mm - 90 W/m² -
1787929224 20.56° C 83% 1015 hPa 0.25 mm - 100 W/m² -
1787929162 20.56° C 82% 1015 hPa 0.25 mm - 114 W/m² -
1787929101 20.56° C 82% 1015 hPa 0.25 mm - 130 W/m² -
1787929040 20.56° C 83% 1015 hPa 0.25 mm - 142 W/m² -
1787928979 20.56° C 83% 1015.1 hPa 0.25 mm - 146 W/m² -
1787928916 20.56° C 83% 1015.1 hPa 0.25 mm - 151 W/m² -
1787928854 20.56° C 83% 1015 hPa 0.25 mm - 160 W/m² -
1787928793 20° C 83% 1015 hPa 0.25 mm - 169 W/m² -
1787928731 20.56° C 83% 1015.2 hPa 0.25 mm - 172 W/m² -
1787928691 20.56° C 84% 1015 hPa 0.25 mm - 171 W/m² -
1787928646 20.56° C 85% 1015 hPa 0.25 mm - 178 W/m² -
1787928548 20.56° C 85% 1015.2 hPa 0.25 mm - 186 W/m² -
1787928515 20° C 85% 1015.2 hPa 0.25 mm - 199 W/m² -
1787928480 20° C 86% 1015.3 hPa 0.25 mm - 216 W/m² -

* Rain latest hour (hover to see other rain measurements)
** Current wind speed in m/s (hover to see current wind gust speed)